Theta_e
352 351 349 348 346 346 345 343 342 344 347 350 350 352 352 353 354 352 352 345 344 343 343 340 338 336 335 333 330 327 325 324 324 324 323 323 322 323 323 324 324 324 323
354 350 351 349 347 346 347 347 347 346 345 343 346 349 353 353 353 354 352 350 346 346 344 343 341 339 336 334 332 328 325 324 323 323 323 322 322 322 322 323 323 323 322
356 355 350 349 348 348 352 353 353 353 349 346 342 342 347 350 351 354 357 353 350 346 345 344 343 341 339 336 335 331 328 324 323 322 322 322 322 321 322 322 322 322 321
357 357 350 350 349 349 350 351 352 351 349 347 342 343 345 348 350 353 353 352 351 352 346 344 344 343 341 340 337 335 330 326 323 322 321 321 321 321 321 321 321 321 321
356 356 351 350 353 347 348 349 350 352 348 348 347 347 348 349 350 351 352 352 353 351 352 347 345 345 344 342 341 339 335 329 324 321 321 320 321 321 320 321 321 321 320
356 356 352 353 353 346 349 350 352 351 350 348 345 345 349 350 352 352 352 351 351 351 350 348 346 344 345 343 343 342 340 333 327 322 320 319 320 320 319 320 320 320 321
355 356 352 355 354 350 352 352 352 351 349 350 354 353 347 351 352 349 350 349 348 349 349 346 345 347 347 344 343 343 343 338 329 323 319 319 319 319 319 319 319 320 319
356 355 356 354 356 350 354 354 352 347 344 349 341 341 333 338 337 342 344 347 349 347 347 348 347 347 345 348 347 343 342 341 333 325 320 317 318 318 318 318 319 319 319
357 357 357 354 354 353 347 353 353 349 342 345 350 339 328 319 328 335 342 341 346 344 344 345 347 347 346 345 346 345 341 338 335 328 321 317 317 318 317 317 318 318 320
357 356 356 356 356 351 352 349 350 351 348 342 342 339 341 337 324 324 335 339 342 343 346 343 345 347 345 344 344 341 338 337 336 328 320 317 316 316 316 317 317 318 319
357 355 357 356 355 351 350 351 352 352 347 339 332 335 339 335 337 326 321 329 335 339 345 346 345 344 344 343 345 342 336 335 331 323 318 315 314 314 315 316 316 318 319
352 356 354 355 353 351 348 353 354 353 348 344 336 336 331 328 328 327 324 328 328 334 339 345 344 341 340 342 339 336 334 332 323 318 315 312 311 312 314 314 315 316 317
343 352 355 353 350 351 349 354 354 349 349 344 346 334 332 331 334 330 328 327 327 333 335 340 341 339 340 341 338 334 333 324 318 314 311 310 310 310 312 313 313 313 314
343 356 354 353 351 350 350 354 351 348 350 347 346 344 333 333 333 332 329 327 323 327 331 337 340 337 338 338 335 333 325 320 315 311 309 308 308 307 310 310 310 310 310
342 348 352 352 350 348 350 355 347 348 346 348 346 346 339 333 334 335 334 332 326 320 325 337 335 337 336 335 332 324 319 316 313 309 307 305 304 306 308 308 307 308 308
350 347 350 351 349 347 349 354 348 348 348 344 338 343 342 335 337 336 334 334 333 327 322 333 334 334 332 327 325 319 316 314 311 308 306 304 303 305 306 306 305 306 306
352 348 348 349 348 346 348 354 352 345 345 346 344 341 341 341 334 335 335 334 333 332 326 335 334 333 325 321 320 316 315 312 310 308 306 302 303 303 303 303 304 304 304
349 349 347 346 346 345 348 346 344 341 343 343 344 342 338 337 340 340 334 338 334 337 330 331 331 327 322 320 316 312 311 311 310 308 303 303 303 303 303 303 304 303 303
344 346 346 344 344 345 345 346 345 342 342 345 346 343 339 339 339 335 336 334 333 335 335 328 331 328 320 316 313 312 311 311 309 308 302 303 303 303 302 303 302 303 303
332 335 341 344 343 343 344 345 345 347 346 345 345 347 342 338 338 339 336 335 334 332 331 325 329 327 326 319 316 310 308 310 308 308 303 305 302 300 300 302 302 303 303
330 329 334 335 337 337 336 341 342 343 343 337 333 338 339 334 328 333 330 336 337 327 323 322 322 326 324 317 317 315 311 308 309 308 304 302 301 301 300 302 300 301 301
329 329 327 330 332 334 315 315 322 339 337 332 325 326 327 325 324 318 319 323 331 334 330 323 322 323 329 327 325 320 312 306 304 309 306 300 301 299 303 302 298 298 298
323 325 327 328 326 330 309 309 311 330 335 337 330 325 326 327 322 328 317 317 319 317 320 333 329 328 328 329 329 323 318 314 311 309 306 301 299 299 300 301 298 297 297
322 320 321 325 328 328 309 305 305 329 332 332 333 329 325 323 324 325 329 326 327 329 329 328 334 333 333 332 333 328 326 317 310 307 308 304 300 300 300 301 298 296 296
319 320 322 322 322 327 306 304 310 325 328 327 330 326 321 322 317 310 328 326 325 328 317 313 308 307 305 306 319 326 317 313 309 306 308 308 300 298 298 298 299 296 295
317 316 317 322 318 320 307 302 310 323 324 327 326 327 314 322 310 306 331 332 327 329 330 328 328 317 315 319 309 330 325 319 317 308 311 307 302 297 294 298 299 304 302
Wind_Speed
6 7 5 5 5 5 5 6 6 5 7 8 8 7 8 6 8 4 3 14 14 14 14 13 13 11 10 8 6 3 1 2 3 5 7 8 8 8 9 9 10 10 9
7 7 6 6 6 5 6 6 6 5 7 7 7 7 8 8 8 5 5 8 15 15 15 15 14 13 12 10 8 5 3 1 2 4 5 7 8 9 9 9 10 10 10
8 7 6 6 6 6 7 6 5 6 6 6 8 7 9 9 9 7 7 6 9 16 16 17 16 16 15 13 12 10 7 4 0 3 5 7 8 8 9 10 10 10 11
9 9 7 6 6 6 7 7 7 7 6 6 6 6 6 7 7 7 7 6 6 6 15 18 17 17 16 16 14 13 10 7 3 1 4 6 8 9 9 9 10 11 11
11 9 8 6 7 7 7 7 7 7 7 7 7 7 6 6 6 6 6 6 6 7 7 18 18 16 17 18 17 17 15 11 5 1 4 6 8 8 9 10 10 11 11
11 10 8 7 8 8 7 7 7 6 8 7 8 6 5 5 4 5 5 5 6 7 7 6 10 11 18 18 20 17 16 14 9 3 2 6 7 9 9 10 11 11 11
12 11 8 8 9 9 8 6 8 9 6 8 4 3 7 6 5 5 5 5 5 6 6 6 5 7 7 20 19 17 16 16 13 5 1 5 6 7 10 10 10 11 10
12 11 10 8 9 8 9 8 8 6 8 6 6 8 7 6 6 5 4 3 3 4 5 6 7 7 8 5 10 16 15 11 14 9 3 3 5 7 9 10 10 11 11
12 12 11 9 8 8 8 10 10 9 7 7 8 6 3 6 3 6 6 4 4 3 4 4 5 6 6 7 6 8 13 14 15 12 7 3 5 7 8 9 10 11 11
13 13 12 11 10 8 8 8 8 9 8 7 6 6 4 7 4 4 6 4 4 5 1 4 2 3 3 4 4 1 13 15 14 12 10 3 7 8 8 9 10 11 11
14 14 12 11 10 9 9 9 9 10 8 8 7 6 5 5 3 5 4 5 5 4 2 1 5 3 2 1 3 5 12 11 15 12 12 5 7 7 8 9 10 10 11
11 13 12 11 10 10 10 10 9 10 9 7 6 5 6 6 5 5 4 3 2 2 2 1 7 2 2 3 2 6 10 12 17 14 13 8 8 9 9 9 10 11 12
11 12 13 12 11 12 11 10 10 10 10 9 8 7 5 4 2 4 4 3 3 1 2 6 6 4 3 2 3 2 12 19 17 17 14 9 9 7 9 9 10 11 12
11 11 13 13 13 14 13 12 10 10 10 10 10 8 5 5 4 4 4 3 4 4 4 3 7 4 4 4 5 6 12 18 18 16 13 11 10 7 6 7 8 10 11
10 12 14 14 14 15 15 14 11 11 10 10 10 9 7 5 4 4 4 4 4 4 2 6 4 5 5 4 9 10 10 15 17 14 12 12 7 5 4 6 7 9 10
12 12 14 15 15 15 15 15 12 13 12 10 9 10 8 6 5 5 5 4 4 5 4 3 5 4 6 7 9 11 11 13 14 14 12 10 7 6 7 7 7 8 10
12 14 14 15 16 16 16 15 14 15 16 14 12 12 13 9 7 7 6 5 4 4 4 9 4 5 5 7 8 9 8 7 7 11 11 9 5 3 2 5 7 8 9
13 15 15 15 16 17 16 17 18 15 18 17 16 15 15 11 11 8 7 6 5 3 6 3 4 3 4 6 7 7 6 5 6 8 9 5 3 0 5 6 8 8 8
11 12 13 15 16 16 17 18 19 19 18 19 18 18 17 15 13 9 9 7 6 5 6 6 6 4 3 5 4 5 5 6 4 9 5 2 6 7 8 9 10 9 9
8 9 9 11 11 13 15 16 17 17 15 14 17 17 16 16 14 12 11 9 7 6 5 5 6 5 4 4 4 4 4 3 5 5 2 6 4 5 6 6 9 10 10
6 6 7 5 8 7 7 10 12 11 10 8 10 10 2 9 13 12 10 11 10 9 7 6 5 6 6 4 6 5 4 5 4 4 4 4 2 1 3 7 10 11 10
10 7 8 6 6 5 1 7 9 15 10 11 6 9 11 13 11 8 10 12 12 11 8 6 5 3 1 5 6 6 6 4 3 6 6 5 3 2 1 3 8 9 10
10 10 12 11 9 5 3 7 12 11 14 15 14 14 13 8 13 13 8 10 11 6 1 7 5 4 2 4 5 7 8 6 4 6 6 5 4 4 3 4 4 7 8
10 9 12 12 13 11 6 4 6 11 11 12 12 17 21 20 14 22 16 16 15 12 9 7 7 5 5 2 7 7 6 5 6 5 6 4 5 4 3 2 4 4 6
12 13 12 12 14 14 13 10 7 9 10 10 13 14 17 21 27 28 19 17 17 13 12 6 9 8 6 4 3 7 7 7 4 4 8 3 5 4 4 4 3 3 2
16 13 15 12 14 12 9 14 12 7 8 10 8 13 21 22 23 22 18 17 16 15 13 13 10 6 6 5 6 9 7 7 4 4 7 7 7 5 3 1 3 5 6
Wind_Direction
200 204 208 232 221 200 201 214 240 227 214 240 239 231 258 239 271 259 244 179 202 209 208 207 206 208 209 204 199 190 148 21 25 23 19 15 14 7 2 356 355 352 350
197 209 204 220 220 223 218 220 212 226 230 242 234 238 244 249 245 262 225 176 205 215 216 215 210 212 216 214 207 199 198 209 15 11 14 18 13 7 0 358 358 348 351
200 233 219 222 216 216 234 220 221 224 251 234 238 239 240 242 256 236 234 229 190 214 222 223 218 214 215 218 216 203 202 208 217 15 4 13 14 7 2 359 353 351 352
220 206 221 221 217 225 222 235 225 244 238 243 242 236 227 235 239 247 254 235 229 215 206 222 226 222 219 222 220 219 204 201 198 348 13 9 13 4 9 357 353 353 350
208 224 222 220 215 223 229 236 235 236 235 247 239 232 243 252 244 237 255 233 246 265 195 195 213 232 224 225 229 222 207 201 180 173 9 13 10 1 11 359 354 352 347
207 207 220 222 216 222 222 227 244 231 252 250 255 213 246 237 240 247 231 237 235 233 238 238 194 221 227 229 233 236 223 195 174 137 3 18 9 3 12 360 351 349 356
204 204 219 198 219 231 237 232 233 224 215 243 281 302 247 225 244 254 250 243 223 225 241 230 237 239 208 222 230 235 233 199 152 145 230 31 8 358 16 358 352 353 348
203 203 216 205 206 222 224 225 218 214 232 209 239 205 240 170 203 203 202 201 247 280 237 222 232 228 256 247 228 226 225 213 159 145 89 350 10 17 11 359 353 351 351
199 204 202 220 199 232 222 215 212 224 220 221 227 272 227 247 136 168 186 192 179 220 260 225 253 258 236 268 257 210 209 165 174 151 119 15 6 23 14 1 355 351 351
196 194 199 204 212 217 229 206 223 223 239 224 192 217 293 341 248 196 185 186 230 234 193 289 282 280 293 258 275 151 162 178 171 146 117 54 21 22 20 6 357 353 350
194 191 197 202 209 220 210 233 213 210 199 244 209 183 201 206 226 286 272 168 194 184 189 98 18 1 306 332 270 134 169 179 142 128 102 80 30 25 22 17 2 357 355
191 192 194 200 202 209 211 207 202 204 231 218 224 212 209 213 191 236 254 231 318 138 21 82 75 51 36 344 78 120 169 142 130 118 95 78 47 27 23 20 11 4 8
197 185 195 196 195 203 204 204 197 198 206 212 219 207 221 228 240 236 271 281 293 80 178 80 82 57 49 45 46 184 150 128 120 106 96 86 61 42 27 22 15 12 10
203 178 196 198 202 195 201 201 196 210 201 213 205 242 212 217 216 233 262 284 253 186 167 55 86 49 52 34 48 101 113 116 113 106 96 94 77 50 20 23 10 5 8
208 192 195 199 202 198 197 193 210 199 203 210 199 208 239 207 219 236 246 255 294 286 214 140 99 59 55 37 93 102 108 120 112 113 111 91 73 45 13 15 357 357 2
235 195 199 205 200 203 198 194 199 198 204 203 210 195 218 211 213 229 236 241 253 291 291 91 87 83 70 72 97 109 116 118 120 112 106 94 82 40 355 354 346 354 357
239 224 205 208 208 206 202 197 207 200 204 206 210 195 203 207 216 210 218 230 231 253 264 91 108 105 77 95 101 108 120 117 118 117 111 111 96 57 5 353 336 347 353
235 235 225 211 216 213 206 208 212 206 202 205 203 203 204 198 212 216 212 224 227 199 276 215 132 109 86 103 116 117 125 130 127 126 128 120 114 356 29 14 0 345 356
296 254 242 232 221 222 215 214 213 217 216 211 203 203 203 196 197 196 217 192 203 219 211 265 123 135 120 150 125 122 136 134 131 141 153 138 95 67 42 29 14 8 2
345 333 289 253 245 229 231 224 224 224 231 229 229 203 197 193 195 193 198 206 212 207 205 228 156 155 160 154 161 147 153 167 153 169 168 63 95 67 38 5 25 19 18
316 322 299 254 250 259 261 239 238 235 219 264 314 240 250 212 191 187 194 197 180 211 195 212 211 155 169 172 204 174 167 159 165 169 180 172 155 11 25 51 19 22 11
294 287 283 284 266 237 349 269 254 229 197 162 185 38 347 327 320 218 223 174 176 203 217 225 225 260 140 182 173 180 152 166 198 188 178 186 158 186 68 49 38 24 15
298 289 277 271 277 253 113 265 283 278 246 223 199 184 190 216 266 254 212 174 188 205 320 210 256 257 254 194 172 191 192 195 177 145 170 176 186 184 217 125 52 30 21
276 277 279 269 257 253 152 183 258 257 254 246 217 198 194 199 211 236 201 194 201 198 202 213 218 227 210 208 180 196 193 140 95 147 180 184 172 189 184 137 82 38 19
274 277 261 263 274 261 171 171 166 235 237 248 211 202 192 202 201 215 195 195 201 201 181 205 87 93 75 25 205 151 164 176 163 169 190 182 169 158 185 199 176 188 79
267 267 270 272 244 247 232 183 190 209 235 240 237 207 202 191 202 194 194 187 199 199 195 194 201 182 177 189 195 207 171 212 163 164 178 183 155 157 185 198 196 216 198